Change the Weather History Date:

Saturday, April 13, 2013

  Actual Average Record
Temperature  
Mean Temperature 36 °F 37 °F  
Max Temperature 38 °F 49 °F 73 °F (1977)
Min Temperature 33 °F 25 °F 12 °F (1976)
Degree Days  
Heating Degree Days 29 28  
Month to date heating degree days 423 399  
Since 1 July heating degree days 7941 8361  
Cooling Degree Days 0 0  
Month to date cooling degree days 0 0  
Year to date cooling degree days 0 0  
Moisture  
Dew Point 33 °F    
Average Humidity 93    
Maximum Humidity 100    
Minimum Humidity 85    
Precipitation  
Precipitation 0.05 in 0.10 in 0.91 in (2004)
Month to date precipitation 1.34 1.21  
Year to date precipitation 4.08 7.23  
Sea Level Pressure  
Sea Level Pressure 29.77 in    
Wind  
Wind Speed 7 mph (SW)    
Max Wind Speed 16 mph    
Max Gust Speed 21 mph    
Visibility 7 miles    
Events Rain , Snow    
T = Trace of Precipitation, MM = Missing Value Source: NWS Daily Summary

Daily Weather History Graph

Daily Weather History Graph

Search for Another Location

Airport or City:

Trip Planner

Search our weather history database for the weather conditions in past years. The results will help you decide how hot, cold, wet, or windy it might be!

Date:

Astronomy

Apr. 13, 2013 Rise Set
Actual Time 6:16 AM EDT 7:39 PM EDT
Civil Twilight 5:45 AM EDT 8:09 PM EDT
Nautical Twilight 5:09 AM EDT 8:45 PM EDT
Astronomical Twilight 4:31 AM EDT 9:24 PM EDT
Moon 7:59 AM EDT (4/13) 11:07 PM EDT (4/13)
Length of Visible Light 14h 23m
Length of Day
13h 23m
Waxing Crescent, 10% of the Moon is Illuminated
Apr 13
Waxing Crescent
Apr 18
First Quarter
Apr 25
Full
May 2
Last Quarter
May 9
New

Hourly Weather History & Observations

Time (EDT) Temp. Windchill Dew Point Humidity Pressure Visibility Wind Dir Wind Speed Gust Speed Precip Events Conditions
12:51 AM 34.0 °F 31.0 °F 33.1 °F 96% 29.76 in 10.0 mi West 3.5 mph - N/A   Overcast
1:25 AM 33.8 °F 28.6 °F 33.8 °F 100% 29.71 in 2.5 mi SW 5.8 mph - N/A   Overcast
1:33 AM 33.8 °F 28.6 °F 33.8 °F 100% 29.71 in 3.0 mi SW 5.8 mph - N/A   Overcast
1:51 AM 34.0 °F 31.0 °F 34.0 °F 100% 29.75 in 5.0 mi SW 3.5 mph - N/A   Overcast
2:51 AM 35.1 °F 27.9 °F 34.0 °F 96% 29.74 in 10.0 mi SW 9.2 mph - 0.00 in   Overcast
3:12 AM 35.6 °F 28.6 °F 33.8 °F 93% 29.69 in 10.0 mi SSW 9.2 mph - N/A   Overcast
3:51 AM 34.0 °F 26.6 °F 32.0 °F 92% 29.73 in 10.0 mi SSW 9.2 mph - N/A   Overcast
4:14 AM 33.8 °F 28.6 °F 32.0 °F 93% 29.69 in 10.0 mi SW 5.8 mph - N/A   Overcast
4:51 AM 34.0 °F 26.0 °F 32.0 °F 92% 29.74 in 8.0 mi SW 10.4 mph - N/A   Overcast
5:17 AM 33.8 °F 27.7 °F 32.0 °F 93% 29.69 in 6.0 mi SW 6.9 mph - N/A   Overcast
5:51 AM 33.1 °F 27.7 °F 32.0 °F 96% 29.74 in 10.0 mi SW 5.8 mph - N/A   Overcast
6:03 AM 33.8 °F 28.6 °F 32.0 °F 93% 29.70 in 9.0 mi SW 5.8 mph - N/A   Overcast
6:51 AM 33.1 °F 26.9 °F 32.0 °F 96% 29.75 in 3.0 mi SW 6.9 mph - 0.01 in Snow Light Snow
7:11 AM 33.8 °F 27.7 °F 32.0 °F 93% 29.71 in 2.5 mi SW 6.9 mph - 0.00 in Snow Light Snow
7:33 AM 33.8 °F 28.6 °F 32.0 °F 93% 29.72 in 4.0 mi SW 5.8 mph - 0.00 in   Overcast
7:51 AM 33.1 °F 26.9 °F 32.0 °F 96% 29.78 in 8.0 mi SW 6.9 mph - 0.00 in   Overcast
8:51 AM 34.0 °F 28.0 °F 33.1 °F 96% 29.78 in 10.0 mi SW 6.9 mph - N/A   Overcast
9:51 AM 36.0 °F 28.5 °F 34.0 °F 93% 29.78 in 10.0 mi SSW 10.4 mph - 0.00 in   Overcast
10:51 AM 35.1 °F 29.3 °F 34.0 °F 96% 29.79 in 9.0 mi SW 6.9 mph - N/A   Overcast
11:51 AM 36.0 °F 27.5 °F 34.0 °F 93% 29.79 in 4.0 mi SW 12.7 mph - N/A   Overcast
12:51 PM 36.0 °F 28.0 °F 34.0 °F 93% 29.79 in 6.0 mi SW 11.5 mph - N/A   Overcast
1:51 PM 37.0 °F 29.8 °F 35.1 °F 93% 29.79 in 7.0 mi SW 10.4 mph - N/A   Overcast
2:51 PM 37.0 °F 30.4 °F 34.0 °F 89% 29.79 in 8.0 mi SW 9.2 mph - N/A   Overcast
3:23 PM 37.4 °F 32.1 °F 35.6 °F 93% 29.74 in 8.0 mi SW 6.9 mph - N/A   Overcast
3:51 PM 37.9 °F 32.7 °F 35.1 °F 89% 29.78 in 6.0 mi WSW 6.9 mph - 0.00 in Snow Light Snow
4:00 PM 37.4 °F 31.4 °F 33.8 °F 87% 29.75 in 3.0 mi West 8.1 mph 20.7 mph 0.00 in Rain Rain
4:51 PM 37.9 °F 35.5 °F 35.1 °F 89% 29.79 in 10.0 mi SW 3.5 mph - 0.00 in   Overcast
5:18 PM 35.6 °F 27.5 °F 33.8 °F 93% 29.76 in 2.5 mi WSW 11.5 mph 18.4 mph 0.02 in Rain Light Rain
5:23 PM 35.6 °F 29.2 °F 33.8 °F 93% 29.76 in 3.0 mi WSW 8.1 mph 18.4 mph 0.02 in Rain Light Rain
5:31 PM 35.6 °F 29.2 °F 33.8 °F 93% 29.77 in 2.5 mi West 8.1 mph - 0.02 in Rain Rain
5:38 PM 35.6 °F 29.2 °F 33.8 °F 93% 29.77 in 3.0 mi West 8.1 mph - 0.03 in Snow Light Snow
5:51 PM 35.1 °F 28.6 °F 33.1 °F 92% 29.83 in 3.0 mi West 8.1 mph - 0.03 in Snow Light Snow
5:54 PM 35.6 °F 29.9 °F 33.8 °F 93% 29.78 in 2.5 mi West 6.9 mph - 0.00 in Snow Light Snow
6:11 PM 33.8 °F 27.0 °F 33.8 °F 100% 29.79 in 1.8 mi WSW 8.1 mph - 0.00 in Snow Light Snow
6:18 PM 33.8 °F 27.7 °F 33.8 °F 100% 29.80 in 3.0 mi Variable 6.9 mph - 0.00 in Snow Light Snow
6:51 PM 34.0 °F 27.2 °F 32.0 °F 92% 29.85 in 9.0 mi SW 8.1 mph - 0.00 in Snow Light Snow
7:12 PM 33.8 °F 28.6 °F 32.0 °F 93% 29.81 in 9.0 mi SW 5.8 mph - 0.00 in Snow Light Snow
7:51 PM 33.1 °F 28.7 °F 32.0 °F 96% 29.86 in 10.0 mi SSW 4.6 mph - 0.00 in   Overcast
8:51 PM 33.1 °F 27.7 °F 32.0 °F 96% 29.88 in 10.0 mi SW 5.8 mph - N/A   Overcast
9:51 PM 33.1 °F 27.7 °F 30.9 °F 92% 29.88 in 10.0 mi SW 5.8 mph - 0.01 in   Overcast
10:51 PM 33.1 °F 27.7 °F 30.9 °F 92% 29.88 in 10.0 mi SW 5.8 mph - 0.00 in   Overcast
11:51 PM 33.1 °F 26.9 °F 30.9 °F 92% 29.87 in 9.0 mi SW 6.9 mph - 0.00 in Snow Light Snow